TimeCST,TemperatureF,Dew PointF,Humidity,Sea Level PressureIn,VisibilityMPH,Wind Direction,Wind SpeedMPH,Gust SpeedMPH,PrecipitationIn,Events,Conditions,WindDirDegrees,DateUTC
12:54 AM,35.1,15.1,44,29.95,10.0,South,15.0,-,N/A,,Clear,180,2012-12-13 06:54:00
1:54 AM,34.0,15.1,46,29.95,10.0,South,11.5,-,N/A,,Clear,170,2012-12-13 07:54:00
2:54 AM,34.0,15.1,46,29.96,10.0,South,15.0,-,N/A,,Clear,170,2012-12-13 08:54:00
3:54 AM,34.0,16.0,48,29.95,10.0,South,13.8,-,N/A,,Clear,170,2012-12-13 09:54:00
4:54 AM,34.0,16.0,48,29.95,10.0,South,13.8,-,N/A,,Clear,190,2012-12-13 10:54:00
5:54 AM,33.1,17.1,52,29.96,10.0,South,9.2,-,N/A,,Clear,180,2012-12-13 11:54:00
6:54 AM,34.0,17.1,50,29.99,10.0,SSW,11.5,-,N/A,,Clear,200,2012-12-13 12:54:00
7:54 AM,32.0,17.1,54,30.00,10.0,South,11.5,-,N/A,,Clear,190,2012-12-13 13:54:00
8:54 AM,37.0,19.0,48,30.01,10.0,South,12.7,-,N/A,,Clear,190,2012-12-13 14:54:00
9:54 AM,41.0,19.9,43,30.03,10.0,WSW,10.4,-,N/A,,Clear,240,2012-12-13 15:54:00
10:54 AM,46.0,19.9,35,30.04,10.0,SW,4.6,-,N/A,,Clear,230,2012-12-13 16:54:00
11:54 AM,50.0,21.9,33,30.03,10.0,WNW,8.1,-,N/A,,Clear,300,2012-12-13 17:54:00
12:54 PM,52.0,21.9,31,30.02,10.0,NW,4.6,-,N/A,,Clear,320,2012-12-13 18:54:00
1:54 PM,52.0,23.0,32,30.02,10.0,WNW,6.9,-,N/A,,Clear,290,2012-12-13 19:54:00
2:54 PM,51.1,23.0,33,30.03,10.0,NNW,8.1,-,N/A,,Clear,340,2012-12-13 20:54:00
3:54 PM,48.9,21.9,35,30.05,10.0,NW,8.1,-,N/A,,Clear,320,2012-12-13 21:54:00
7:54 PM,28.0,16.0,61,30.10,7.0,North,6.9,-,N/A,,Clear,360,2012-12-14 01:54:00
8:54 PM,25.0,14.0,63,30.11,7.0,NNE,5.8,-,N/A,,Clear,20,2012-12-14 02:54:00
9:54 PM,21.0,10.9,65,30.12,6.0,NNW,4.6,-,N/A,,Haze,340,2012-12-14 03:54:00
10:54 PM,21.0,10.9,65,30.10,5.0,North,4.6,-,N/A,,Haze,350,2012-12-14 04:54:00
11:54 PM,19.9,12.0,71,30.09,6.0,NNW,6.9,-,N/A,,Haze,340,2012-12-14 05:54:00